TimeEST,TemperatureF,Dew PointF,Humidity,Sea Level PressureIn,VisibilityMPH,Wind Direction,Wind SpeedMPH,Gust SpeedMPH,PrecipitationIn,Events,Conditions,WindDirDegrees,DateUTC
12:15 AM,27.9,24.4,87,29.34,7.0,WNW,11.5,19.6,N/A,,Mostly Cloudy,290,2013-01-20 05:15:00
12:36 AM,26.2,22.5,86,29.33,10.0,WNW,9.2,-,N/A,,Scattered Clouds,290,2013-01-20 05:36:00
12:55 AM,24.8,20.5,84,29.33,10.0,WNW,11.5,19.6,N/A,,Clear,290,2013-01-20 05:55:00
1:15 AM,23.9,19.9,85,29.33,7.0,WNW,11.5,20.7,N/A,,Mostly Cloudy,290,2013-01-20 06:15:00
1:35 AM,23.5,19.9,86,29.34,10.0,West,6.9,17.3,N/A,,Mostly Cloudy,270,2013-01-20 06:35:00
1:55 AM,23.0,19.8,87,29.36,10.0,West,6.9,-,N/A,,Mostly Cloudy,270,2013-01-20 06:55:00
3:35 AM,16.0,11.5,82,29.50,5.0,WNW,13.8,27.6,N/A,,Haze,290,2013-01-20 08:35:00
3:56 AM,14.9,10.4,82,29.53,5.0,NW,13.8,24.2,N/A,,Haze,310,2013-01-20 08:56:00
4:16 AM,13.6,8.8,81,29.55,4.0,NW,12.7,25.3,N/A,Snow,Light Snow,310,2013-01-20 09:16:00
4:35 AM,11.8,6.3,78,29.58,7.0,NW,15.0,26.5,N/A,,Overcast,310,2013-01-20 09:35:00
4:56 AM,10.4,5.2,79,29.61,7.0,NW,11.5,20.7,N/A,,Overcast,310,2013-01-20 09:56:00
5:16 AM,9.1,3.7,79,29.64,10.0,NW,11.5,21.9,N/A,,Overcast,320,2013-01-20 10:16:00
5:35 AM,7.2,2.7,82,29.66,10.0,NNW,9.2,16.1,N/A,,Mostly Cloudy,330,2013-01-20 10:35:00
5:56 AM,5.9,1.2,81,29.69,10.0,NW,10.4,-,N/A,,Scattered Clouds,320,2013-01-20 10:56:00
6:15 AM,5.5,-0.4,77,29.72,10.0,NNW,10.4,20.7,N/A,,Clear,330,2013-01-20 11:15:00
6:35 AM,4.1,-2.0,76,29.77,10.0,NW,8.1,-,N/A,,Scattered Clouds,320,2013-01-20 11:35:00
6:56 AM,3.4,-2.7,76,29.79,10.0,NW,8.1,-,N/A,,Mostly Cloudy,310,2013-01-20 11:56:00
7:15 AM,2.8,-3.3,76,29.80,10.0,NW,9.2,20.7,N/A,,Scattered Clouds,310,2013-01-20 12:15:00
7:36 AM,2.3,-3.6,76,29.83,10.0,NW,8.1,-,N/A,,Clear,320,2013-01-20 12:36:00
7:55 AM,2.3,-3.5,77,29.84,10.0,NW,5.8,-,N/A,,Clear,320,2013-01-20 12:55:00
8:15 AM,2.1,-4.0,76,29.85,10.0,NNW,5.8,-,N/A,,Clear,330,2013-01-20 13:15:00
8:36 AM,1.9,-4.0,76,29.87,10.0,NNW,8.1,-,N/A,,Clear,330,2013-01-20 13:36:00
8:55 AM,2.3,-4.4,74,29.90,10.0,NNW,6.9,-,N/A,,Clear,330,2013-01-20 13:55:00
9:15 AM,2.3,-4.4,74,29.92,10.0,NW,5.8,-,N/A,,Clear,320,2013-01-20 14:15:00
9:36 AM,3.2,-4.0,72,29.94,10.0,NW,9.2,-,N/A,,Clear,310,2013-01-20 14:36:00
10:35 AM,5.5,-2.0,71,29.98,10.0,NW,6.9,-,N/A,,Clear,310,2013-01-20 15:35:00
10:55 AM,6.3,-1.5,71,29.99,10.0,NNW,4.6,-,N/A,,Clear,330,2013-01-20 15:55:00
11:16 AM,6.6,-1.8,68,29.99,10.0,NNW,3.5,-,N/A,,Clear,330,2013-01-20 16:16:00
11:35 AM,7.5,-2.0,65,30.00,10.0,NW,8.1,-,N/A,,Clear,320,2013-01-20 16:35:00
11:56 AM,7.7,-1.5,66,30.00,10.0,NW,9.2,-,N/A,,Clear,320,2013-01-20 16:56:00
12:16 PM,8.2,-0.6,67,30.00,10.0,NNW,5.8,-,N/A,,Scattered Clouds,330,2013-01-20 17:16:00
12:35 PM,8.1,-0.2,69,30.00,10.0,NW,8.1,-,N/A,,Mostly Cloudy,320,2013-01-20 17:35:00
12:56 PM,8.6,1.2,72,29.99,10.0,WNW,6.9,-,N/A,,Mostly Cloudy,300,2013-01-20 17:56:00
1:16 PM,9.0,1.9,73,29.99,10.0,WNW,6.9,-,N/A,,Scattered Clouds,290,2013-01-20 18:16:00
1:36 PM,8.6,1.9,74,30.00,10.0,NW,9.2,-,N/A,,Clear,310,2013-01-20 18:36:00
1:56 PM,9.1,3.0,76,29.99,10.0,NW,6.9,-,N/A,,Scattered Clouds,310,2013-01-20 18:56:00
2:16 PM,9.9,2.8,73,29.99,10.0,NW,9.2,17.3,N/A,,Mostly Cloudy,310,2013-01-20 19:16:00
2:35 PM,9.5,3.0,75,30.00,10.0,NW,9.2,16.1,N/A,,Scattered Clouds,310,2013-01-20 19:35:00
2:56 PM,9.9,3.6,76,30.00,10.0,WNW,5.8,18.4,N/A,,Clear,300,2013-01-20 19:56:00
3:35 PM,9.9,4.1,78,30.02,10.0,WNW,5.8,-,N/A,,Clear,300,2013-01-20 20:35:00
3:56 PM,9.0,3.7,79,30.02,10.0,NW,5.8,-,N/A,,Scattered Clouds,320,2013-01-20 20:56:00
4:16 PM,8.2,3.9,83,30.03,7.0,NNW,5.8,-,N/A,,Mostly Cloudy,340,2013-01-20 21:16:00
5:15 PM,8.4,4.1,83,30.05,4.0,Calm,Calm,-,N/A,Snow,Light Snow,0,2013-01-20 22:15:00
5:35 PM,7.9,4.1,85,30.05,1.8,North,3.5,-,N/A,Snow,Light Snow,350,2013-01-20 22:35:00
5:56 PM,7.0,2.8,83,30.05,10.0,Calm,Calm,-,N/A,,Overcast,0,2013-01-20 22:56:00
6:15 PM,6.4,3.0,86,30.06,7.0,North,4.6,-,N/A,Snow,Light Snow,350,2013-01-20 23:15:00
6:36 PM,5.9,2.8,87,30.05,7.0,Calm,Calm,-,N/A,,Overcast,0,2013-01-20 23:36:00
6:56 PM,5.5,2.5,87,30.06,5.0,Calm,Calm,-,N/A,Snow,Light Snow,0,2013-01-20 23:56:00
7:15 PM,5.0,2.1,88,30.06,5.0,Calm,Calm,-,N/A,Snow,Light Snow,0,2013-01-21 00:15:00
7:36 PM,4.1,1.4,89,30.06,3.0,Calm,Calm,-,N/A,Snow,Light Snow,0,2013-01-21 00:36:00
7:56 PM,4.1,1.8,90,30.06,4.0,Calm,Calm,-,N/A,Snow,Light Snow,0,2013-01-21 00:56:00
8:15 PM,3.6,1.0,89,30.06,4.0,Calm,Calm,-,N/A,Snow,Light Snow,0,2013-01-21 01:15:00
8:36 PM,4.3,1.6,89,30.06,7.0,Calm,Calm,-,N/A,Snow,Light Snow,0,2013-01-21 01:36:00
8:55 PM,4.3,1.2,87,30.06,7.0,Calm,Calm,-,N/A,Snow,Light Snow,0,2013-01-21 01:55:00
9:16 PM,4.5,1.4,87,30.05,10.0,North,3.5,-,N/A,,Overcast,360,2013-01-21 02:16:00
9:36 PM,5.0,1.4,85,30.06,10.0,Calm,Calm,-,N/A,,Overcast,0,2013-01-21 02:36:00
9:55 PM,4.3,0.7,85,30.05,10.0,Calm,Calm,-,N/A,,Overcast,0,2013-01-21 02:55:00
10:16 PM,2.3,-0.4,88,30.05,10.0,Calm,Calm,-,N/A,Snow,Light Snow,0,2013-01-21 03:16:00
10:35 PM,0.5,-1.8,90,30.05,10.0,Calm,Calm,-,N/A,,Clear,0,2013-01-21 03:35:00
10:55 PM,-0.6,-3.1,89,30.05,10.0,Calm,Calm,-,N/A,,Clear,0,2013-01-21 03:55:00
11:16 PM,-2.4,-4.7,90,30.05,10.0,Calm,Calm,-,N/A,,Scattered Clouds,0,2013-01-21 04:16:00
11:35 PM,-3.5,-6.5,87,30.04,10.0,NNW,3.5,-,N/A,,Clear,340,2013-01-21 04:35:00
11:55 PM,-3.6,-6.2,89,30.04,10.0,Calm,Calm,-,N/A,,Clear,0,2013-01-21 04:55:00